Flag for Niger Weather past 2 weeks in Niamey, Niger

Now
79 °F

Clear.


Feels Like: 82 °F
Forecast: 76 / 91 °F
Wind: 10 mph from South

Location: Niamey-Aero

Current Time: Sep 17, 2014 at 10:56:30 PM

Latest Report: Sep 17, 2014 at 10:00 PM


Visibility: 10 mi

Pressure: 29.95 "Hg

Humidity: 79%

Dew point: 72 °F

Location of NiameyLocation

Historic Weather in Niamey — Graph

°F

Niamey temperature yesterday

Maximum temperature yesterday: 93 °F (at 4:00 PM)
Minimum temperature yesterday: 72 °F (at 5:00 AM)
Average temperature yesterday: 83 °F

Past Weeks' High & Low Weather Summary

 TemperatureHumidityPressure
High99 °F (Sep 4, 3:00 PM)100% (Sep 13, 11:00 PM)30.01 "Hg (Sep 13, 11:00 PM)
Low72 °F (Sep 16, 5:00 AM)27% (Sep 9, 4:00 PM)29.74 "Hg (Sep 4, 6:00 PM)
Average85 °F63%29.89 "Hg
* Reported Sep 2 9:00 PM — Sep 17 9:00 PM, Niamey, Weather by CustomWeather, © 2014

Note: Actual official high and low records may vary slightly from our data, if they occured in-between our weather recording intervals... More about our weather records

Advertising

Niamey weather history for previous 24 hours

 ConditionsComfort  
Time TempWeatherWind HumidityBarometerVisibility
9:00 PM
Sep 17
81 °FPassing clouds.13 mph74%29.89 "HgN/A
8:00 PM86 °FPassing clouds.12 mph59%29.86 "HgN/A
7:00 PM90 °FPassing clouds.8 mph46%29.86 "HgN/A
6:00 PM91 °FPassing clouds.8 mph41%29.83 "HgN/A
5:00 PM93 °FScattered clouds.7 mph39%29.80 "HgN/A
4:00 PM95 °FScattered clouds.7 mph36%29.80 "HgN/A
3:00 PM93 °FPassing clouds.7 mph36%29.83 "HgN/A
2:00 PM95 °FPassing clouds.7 mph34%29.86 "HgN/A
1:00 PM91 °FPassing clouds.6 mph44%29.89 "HgN/A
12:00 PM90 °FPassing clouds.7 mph49%29.92 "HgN/A
11:00 AM88 °FPassing clouds.6 mph55%29.95 "HgN/A
10:00 AM84 °FPassing clouds.7 mph62%29.95 "HgN/A
9:00 AM81 °FPassing clouds.5 mph74%29.95 "HgN/A
8:00 AM77 °FSunny.5 mph89%29.89 "Hg10 mi
7:00 AM77 °FSunny.3 mph89%29.86 "Hg10 mi
6:00 AM77 °FClear.3 mph89%29.86 "Hg10 mi
5:00 AM77 °FClear.6 mph89%29.86 "Hg10 mi
4:00 AM79 °FClear.6 mph84%29.86 "Hg10 mi
3:00 AM79 °FClear.7 mph84%29.86 "Hg10 mi
2:00 AM79 °FClear.3 mph79%29.89 "Hg10 mi
1:00 AM81 °FClear.6 mph74%29.89 "Hg10 mi
12:00 AM81 °FClear.3 mph74%29.95 "Hg10 mi
11:00 PM
Sep 16
81 °FClear.7 mph79%29.89 "Hg10 mi
10:00 PM81 °FClear.8 mph74%29.89 "Hg10 mi
Weather by CustomWeather, © 2014

See weather overviewHow to use our weather pages